Find Starlink 34604

NORAD ID: 64801 Int'l Des: 2025-150 Owner: SPXS Country: US Constellation: starlink operational
LEOCIRCULAR

現在のビュー

3D地球を読み込み中...

About Starlink 34604

Starlink 34604 (NORAD 64801) is a starlink constellation satellite (v2 mini) launched Jul 16, 2025 by SPXS of US. It operates in LEO, CIRCULAR orbit with a mass of 575.00 kg.

Starlink 34604について

説明を読み込み中...

次回通過

Passes for default location (London). Set your location on the main map for personalized predictions.

高度履歴

Loading altitude history...

軌道要素

1 64801U 25150M 26195.18052062 .00002120 00000-0 18539-3 0 9993
2 64801 70.0002 175.5337 0003457 270.2025 89.8738 14.98337125 55464
Epoch: Jul 14, 2026 • Age: 4 hours

現在のステータス

高度 578.3 km
遠地点 / 近地点 N/A
速度 7.57 km/s
衛星直下点 -20.31°S, 55.92°W
打ち上げ日 Jul 16, 2025
運用期間 0.9 years
タイプ internet

技術仕様

分類 Payload
質量 575.00 kg
乾燥質量 530.00 kg
総質量 575.00 kg
長さ 0.30 m
直径 4.10 m
スパン 29.00 m
形状 Box + pan
製造者 SPXS
バスタイプ Starlink V2MO
フェーズステータス In Orbit
所有者/国 SPXS/US

Most Searched